Location: Ca�n Batista
(41.4099°N, 1.7752°E)
Time: 14:41:00
(UTC+00:00)

Cosmos 2219 Rocket - Pass Details

Date: 03 March 2021
Orbit: 826 x 848 km, 71.0° (Epoch: 21 April)

Event Time Altitude Azimuth Distance (km) Brightness Sun altitude
Rises 21:05:56 0° 239° (WSW) 3,357 5.7 -37.2°
Reaches altitude 10° 21:08:49 10° 253° (WSW) 2,429 5.0 -37.7°
Maximum altitude 21:13:17 24° 307° (NW) 1,650 4.2 -38.4°
Drops below altitude 10° 21:17:47 10° 1° (N) 2,449 4.9 -39.1°
Sets 21:20:43 0° 15° (NNE) 3,391 5.5 -39.6°
